Indian Springs, NV

6:21 PM PDT on May 23, 2017 (GMT -0700)
Indian Springs Air Force Auxiliary

Weather History for KINS - November, 2012

Change the Weather History Date:

Tuesday, November 27, 2012

  Actual Average (KDRA) Record (KDRA)
Temperature  
Mean Temperature 46 °F -  
Max Temperature 62 °F 56 °F 71 °F (1991)
Min Temperature 30 °F 34 °F 21 °F (2010)
Degree Days  
Heating Degree Days 19    
Moisture  
Dew Point 21 °F    
Average Humidity 39    
Maximum Humidity 57    
Minimum Humidity 21    
Precipitation  
Precipitation 0.00 in - - ()
Sea Level Pressure  
Sea Level Pressure 30.20 in    
Wind  
Wind Speed 3 mph (West)    
Max Wind Speed 8 mph    
Max Gust Speed -    
Visibility 10 miles    
Events      
Averages and records for this station are not official NWS values.
T = Trace of Precipitation, MM = Missing Value Source: NWS Daily Summary

Daily Weather History Graph

Daily Weather History Graph

Search for Another Location

Airport or City:

Trip Planner

Search our weather history database for the weather conditions in past years. The results will help you decide how hot, cold, wet, or windy it might be!

Date:

Astronomy

Nov. 27, 2012 Rise Set
Actual Time 6:33 AM PST 4:27 PM PST
Civil Twilight 6:04 AM PST 4:56 PM PST
Nautical Twilight 5:32 AM PST 5:27 PM PST
Astronomical Twilight 5:01 AM PST 5:58 PM PST
Moon 4:01 PM PST (11/27) 5:42 AM PST (11/27)
Length of Visible Light 10h 51m
Length of Day
9h 54m
Waxing Gibbous, 99% of the Moon is Illuminated
Nov 27
Waxing Gibbous
Nov 28
Full
Dec 6
Last Quarter
Dec 13
New
Dec 19
First Quarter

Hourly Weather History & Observations

Time (PST) Temp. Windchill Dew Point Humidity Pressure Visibility Wind Dir Wind Speed Gust Speed Precip Events Conditions
12:58 AM 38.3 °F 33.9 °F 19.4 °F 47% 30.20 in 10.0 mi WSW 5.8 mph - N/A   Clear
1:58 AM 37.2 °F - 19.2 °F 48% 30.19 in 10.0 mi Variable 1.2 mph - N/A   Clear
2:58 AM 35.2 °F 29.5 °F 18.9 °F 51% 30.19 in 10.0 mi WSW 6.9 mph - N/A   Clear
3:58 AM 34.5 °F - 18.7 °F 52% 30.20 in 10.0 mi North 1.2 mph - N/A   Clear
4:58 AM 35.1 °F 31.0 °F 19.2 °F 53% 30.21 in 10.0 mi WSW 4.6 mph - N/A   Clear
5:58 AM 31.6 °F - 17.8 °F 57% 30.22 in 10.0 mi West 2.3 mph - N/A   Clear
6:58 AM 30.9 °F - 16.7 °F 56% 30.24 in 10.0 mi WNW 2.3 mph - N/A   Clear
7:58 AM 36.3 °F - 19.6 °F 51% 30.26 in 10.0 mi NE 2.3 mph - N/A   Clear
8:58 AM 42.4 °F - 20.7 °F 42% 30.27 in 10.0 mi West 1.2 mph - N/A   Clear
9:58 AM 48.6 °F - 22.8 °F 36% 30.27 in 10.0 mi North 1.2 mph - N/A   Clear
10:58 AM 55.0 °F - 22.6 °F 28% 30.24 in 10.0 mi Calm Calm - N/A   Clear
11:58 AM 58.1 °F - 21.7 °F 25% 30.21 in 10.0 mi Calm Calm - N/A   Clear
12:58 PM 60.8 °F - 22.1 °F 23% 30.19 in 10.0 mi Calm Calm - N/A   Clear
1:58 PM 62.6 °F - 21.4 °F 21% 30.17 in 10.0 mi ESE 5.8 mph - N/A   Clear
2:58 PM 62.2 °F - 22.3 °F 22% 30.16 in 10.0 mi East 8.1 mph - N/A   Clear
3:58 PM 60.3 °F - 22.6 °F 24% 30.15 in 10.0 mi East 8.1 mph - N/A   Clear
4:58 PM 55.4 °F - 22.5 °F 28% 30.16 in 10.0 mi East 2.3 mph - N/A   Clear
5:58 PM 53.8 °F - 22.6 °F 30% 30.17 in 10.0 mi West 1.2 mph - N/A   Clear
6:58 PM 53.4 °F - 22.5 °F 30% 30.18 in 10.0 mi East 1.2 mph - N/A   Clear
7:58 PM 48.2 °F - 23.7 °F 38% 30.18 in 10.0 mi West 3.5 mph - N/A   Clear
8:58 PM 45.3 °F - 23.7 °F 43% 30.18 in 10.0 mi SW 2.3 mph - N/A   Mostly Cloudy
9:58 PM 44.6 °F 41.4 °F 23.0 °F 43% 30.19 in 10.0 mi WSW 5.8 mph - N/A   Mostly Cloudy
10:58 PM 42.6 °F - 23.4 °F 47% 30.19 in 10.0 mi West 2.3 mph - N/A   Overcast
11:58 PM 42.1 °F - 23.2 °F 47% 30.19 in 10.0 mi Calm Calm - N/A   Clear